Flag for Guinea-Bissau Weather past 2 weeks in Bissau, Guinea-Bissau

Now
77 °F

Clear.


Feels Like: 78 °F
Forecast: N/A
Wind: 7 mph from Southwest

Location: Ziguinchor Airport

Current Time: Mar 30, 2015 at 11:46:39 PM

Latest Report: Mar 30, 2015 at 11:00 PM


Visibility: 10 mi

Pressure: 29.92 "Hg

Humidity: 89%

Dew point: 73 °F

Location of BissauLocation

Historic Weather in Bissau — Graph

°F

Bissau temperature yesterday

Maximum temperature yesterday: 104 °F (at 4:00 PM)
Minimum temperature yesterday: 68 °F (at 6:00 AM)
Average temperature yesterday: 83 °F

Past Weeks' High & Low Weather Summary

 TemperatureHumidityPressure
High104 °F (Mar 28, 4:00 PM)100% (Mar 27, 8:00 AM)30.01 "Hg (Mar 27, 8:00 AM)
Low63 °F (Mar 25, 6:00 AM)12% (Mar 30, 4:00 PM)29.71 "Hg (Mar 20, 5:00 PM)
Average79 °F58%29.88 "Hg
* Reported Mar 15 10:00 PM — Mar 30 10:00 PM, Bissau, Weather by CustomWeather, © 2015

Note: Actual official high and low records may vary slightly from our data, if they occured in-between our weather recording intervals... More about our weather records

Advertising

Bissau weather history for previous 24 hours

 ConditionsComfort  
Time TempWeatherWind HumidityBarometerVisibility
10:00 PM
Mon, Mar 30
79 °FClear.5 mph84%29.92 "Hg10 mi
9:00 PM79 °FClear.5 mph84%29.89 "Hg10 mi
8:00 PM84 °FClear.9 mph58%29.83 "Hg10 mi
7:30 PM86 °FClear.7 mph52%29.83 "Hg10 mi
7:00 PM91 °FSunny.9 mph41%29.80 "Hg10 mi
6:00 PM97 °FSunny.5 mph23%29.77 "Hg10 mi
5:00 PM99 °FSunny.7 mph19%29.77 "Hg10 mi
4:00 PM100 °FSunny.7 mph12%29.80 "Hg10 mi
3:00 PM99 °FSunny.7 mph15%29.80 "Hg10 mi
2:00 PM99 °FSunny.9 mph13%29.86 "Hg10 mi
1:00 PM95 °FSunny.9 mph16%29.92 "Hg10 mi
12:00 PM91 °FSunny.12 mph18%29.95 "Hg10 mi
11:00 AM88 °FSunny.14 mph27%29.95 "Hg10 mi
10:00 AM81 °FSunny.12 mph45%29.98 "Hg10 mi
9:00 AM72 °FSunny.5 mph88%29.95 "Hg10 mi
8:00 AM66 °FSunny.5 mph100%29.95 "Hg10 mi
7:00 AM66 °FClear.5 mph94%29.89 "Hg2 mi
6:00 AM68 °FClear.2 mph94%29.89 "Hg10 mi
5:00 AM68 °FClear.No wind100%29.86 "Hg10 mi
3:00 AM70 °FClear.2 mph94%29.86 "Hg10 mi
2:00 AM72 °FClear.2 mph94%29.89 "Hg10 mi
1:00 AM73 °FClear.5 mph89%29.89 "Hg10 mi
12:00 AM73 °FClear.2 mph89%29.92 "Hg10 mi
11:00 PM
Sun, Mar 29
77 °FClear.5 mph83%29.92 "Hg10 mi
Weather by CustomWeather, © 2015

See weather overviewHow to use our weather pages